This is the latest recevied weather packets stored in our database for station/object N7NMS-13. If no packets are shown the sender has not sent any weather packets the latest 10 day(s).
| Time | Temp. | Humidity | Pressure | Rain* | Wind** | Luminosity | Snow |
|---|---|---|---|---|---|---|---|
| 1777845852 | 15.56° C | 36% | - | 0 mm | - | - | - |
| 1777845252 | 14.44° C | 36% | - | 0 mm | - | - | - |
| 1777844622 | 15° C | 38% | - | 0 mm | - | - | - |
| 1777844022 | 15° C | 39% | - | 0 mm | - | - | - |
| 1777843392 | 14.44° C | 40% | - | 0 mm | - | - | - |
| 1777842792 | 14.44° C | 39% | - | 0 mm | - | - | - |
| 1777842192 | 13.89° C | 38% | - | 0 mm | - | - | - |
| 1777841592 | 14.44° C | 37% | - | 0 mm | - | - | - |
| 1777840962 | 14.44° C | 38% | - | 0 mm | - | - | - |
| 1777840363 | 14.44° C | 38% | - | 0 mm | - | - | - |
| 1777839762 | 13.89° C | 39% | - | 0 mm | - | - | - |
| 1777839133 | 14.44° C | 38% | - | 0 mm | - | - | - |
| 1777838533 | 14.44° C | 39% | - | 0 mm | - | - | - |
| 1777837903 | 13.89° C | 39% | - | 0 mm | - | - | - |
| 1777837303 | 14.44° C | 41% | - | 0 mm | - | - | - |
| 1777836703 | 13.89° C | 40% | - | 0 mm | - | - | - |
| 1777836103 | 13.89° C | 39% | - | 0 mm | - | - | - |
| 1777835473 | 13.89° C | 42% | - | 0 mm | - | - | - |
| 1777834873 | 13.89° C | 40% | - | 0 mm | - | - | - |
| 1777834273 | 13.33° C | 41% | - | 0 mm | - | - | - |
| 1777833643 | 13.33° C | 43% | - | 0 mm | - | - | - |
| 1777833043 | 12.22° C | 43% | - | 0 mm | - | - | - |
| 1777832443 | 12.78° C | 42% | - | 0 mm | - | - | - |
| 1777831843 | 12.22° C | 41% | - | 0 mm | - | - | - |
| 1777831213 | 13.33° C | 44% | - | 0 mm | - | - | - |
* Rain latest hour (hover to see other rain measurements)
** Current wind speed in m/s (hover to see current wind gust speed)